Location: Fishcreek Rd Observing Site
(41.1865°N, 81.4271°W)
Time: 10:46:31
(UTC-04:00)

Iridium 75 - Visible Passes

Search period start: 28 August 2015 00:00
Search period end: 07 September 2015 00:00
Orbit: 776 x 779 km, 86.4° (Epoch: 27 August)

Date Brightness Start Highest point End Pass type
(mag) Time Alt. Az. Time Alt. Az. Time Alt. Az.
28 Aug 8.0 00:35:01 10° NNW 00:37:20 25° NNW 00:37:20 25° NNW visible
29 Aug 7.7 00:01:17 10° N 00:03:51 30° N 00:03:51 30° N visible
29 Aug 7.6 23:27:50 10° N 23:30:24 28° NNE 23:30:24 28° NNE visible
30 Aug 8.7 01:09:53 10° NW 01:10:52 13° NW 01:10:52 13° NW visible
30 Aug 7.8 22:54:43 10° NNE 22:56:56 21° NE 22:56:56 21° NE visible
31 Aug 8.3 00:35:24 10° NNW 00:37:24 20° NW 00:37:24 20° NW visible
31 Aug 8.1 22:22:08 10° NE 22:23:29 14° NE 22:23:29 14° NE visible
01 Sep 7.8 00:01:27 10° NNW 00:03:57 28° NNW 00:03:57 28° NNW visible
01 Sep 7.5 23:27:50 10° N 23:30:30 31° N 23:30:30 31° N visible
02 Sep 7.6 22:54:30 10° N 22:57:04 26° NNE 22:57:04 26° NNE visible
03 Sep 8.5 00:35:58 10° NNW 00:37:32 16° NW 00:37:32 16° NW visible
03 Sep 7.8 22:21:33 10° NNE 22:23:38 19° NE 22:23:38 19° NE visible
04 Sep 8.1 00:01:45 10° NNW 00:04:06 24° NW 00:04:06 24° NW visible
04 Sep 8.2 21:49:25 10° NE 21:50:12 12° NE 21:50:12 12° NE visible
04 Sep 7.6 23:27:56 10° N 23:30:40 32° NNW 23:30:40 32° NNW visible
05 Sep 7.4 22:54:25 10° N 22:57:15 32° NNE 22:57:15 32° NNE visible
06 Sep 8.8 00:36:51 10° NW 00:37:43 12° NW 00:37:43 12° NW visible
06 Sep 7.5 22:21:14 10° NNE 22:23:50 25° NE 22:23:50 25° NE visible
